Grand Marais, MN

1:47 PM CST on February 24, 2017 (GMT -0600)
Grand Marais-Cook County

Weather History for KCKC - October, 2012

Change the Weather History Date:

Tuesday, October 16, 2012

  Actual Average Record
Temperature  
Mean Temperature 42 °F -  
Max Temperature 51 °F 46 °F 57 °F (2010)
Min Temperature 33 °F 32 °F 17 °F (2002)
Degree Days  
Heating Degree Days 23    
Moisture  
Dew Point 37 °F    
Average Humidity 84    
Maximum Humidity 93    
Minimum Humidity 67    
Precipitation  
Precipitation 0.06 in - - ()
Sea Level Pressure  
Sea Level Pressure 29.59 in    
Wind  
Wind Speed 4 mph (ESE)    
Max Wind Speed 9 mph    
Max Gust Speed -    
Visibility 7 miles    
Events Fog , Rain    
Averages and records for this station are not official NWS values.
T = Trace of Precipitation, MM = Missing Value Source: NWS Daily Summary

Daily Weather History Graph

Daily Weather History Graph

Search for Another Location

Airport or City:

Trip Planner

Search our weather history database for the weather conditions in past years. The results will help you decide how hot, cold, wet, or windy it might be!

Date:

Astronomy

Oct. 16, 2012 Rise Set
Actual Time 7:22 AM CDT 6:10 PM CDT
Civil Twilight 6:51 AM CDT 6:41 PM CDT
Nautical Twilight 6:15 AM CDT 7:17 PM CDT
Astronomical Twilight 5:39 AM CDT 7:53 PM CDT
Moon 8:55 AM CDT (10/16) 6:43 PM CDT (10/16)
Length of Visible Light 11h 50m
Length of Day
10h 47m
New Moon, 2% of the Moon is Illuminated
Oct 16
New Moon
Oct 21
First Quarter
Oct 29
Full
Nov 6
Last Quarter
Nov 13
New

Hourly Weather History & Observations

Time (CDT) Temp. Windchill Dew Point Humidity Pressure Visibility Wind Dir Wind Speed Gust Speed Precip Events Conditions
12:14 AM 33.8 °F 30.8 °F 30.2 °F 87% 29.79 in 10.0 mi East 3.5 mph - N/A   Overcast
12:34 AM 35.6 °F - 30.2 °F 81% 29.79 in 10.0 mi Calm Calm - N/A   Overcast
12:53 AM 35.6 °F 32.8 °F 30.2 °F 81% 29.79 in 10.0 mi East 3.5 mph - N/A   Light Drizzle
1:14 AM 35.6 °F 32.8 °F 30.2 °F 81% 29.79 in 10.0 mi ENE 3.5 mph - N/A Rain Light Rain
1:33 AM 35.6 °F 32.8 °F 32.0 °F 87% 29.78 in 10.0 mi East 3.5 mph - N/A   Overcast
1:54 AM 35.6 °F 29.9 °F 32.0 °F 87% 29.76 in 10.0 mi East 6.9 mph - N/A   Overcast
2:14 AM 37.4 °F 32.1 °F 32.0 °F 81% 29.75 in 10.0 mi East 6.9 mph - N/A   Overcast
2:33 AM 37.4 °F 32.8 °F 32.0 °F 81% 29.74 in 10.0 mi East 5.8 mph - N/A   Overcast
2:54 AM 37.4 °F 33.8 °F 32.0 °F 81% 29.73 in 10.0 mi ESE 4.6 mph - N/A   Overcast
3:14 AM 37.4 °F 32.1 °F 33.8 °F 87% 29.72 in 10.0 mi East 6.9 mph - N/A   Overcast
3:33 AM 37.4 °F 32.1 °F 33.8 °F 87% 29.72 in 10.0 mi ESE 6.9 mph - N/A   Light Drizzle
3:54 AM 37.4 °F 31.4 °F 33.8 °F 87% 29.70 in 10.0 mi East 8.1 mph - N/A   Light Drizzle
4:13 AM 37.4 °F 34.9 °F 33.8 °F 87% 29.70 in 10.0 mi ESE 3.5 mph - N/A   Light Drizzle
4:34 AM 37.4 °F 33.8 °F 33.8 °F 87% 29.69 in 10.0 mi East 4.6 mph - N/A   Light Drizzle
4:53 AM 37.4 °F 33.8 °F 33.8 °F 87% 29.68 in 10.0 mi East 4.6 mph - N/A   Drizzle
5:14 AM 37.4 °F 33.8 °F 35.6 °F 93% 29.67 in 10.0 mi ESE 4.6 mph - 0.01 in Rain Rain
5:34 AM 39.2 °F 35.0 °F 35.6 °F 87% 29.66 in 7.0 mi ESE 5.8 mph - 0.01 in   Drizzle
5:54 AM 39.2 °F 35.9 °F 35.6 °F 87% 29.65 in 10.0 mi SE 4.6 mph - 0.02 in Rain Rain
6:13 AM 39.2 °F 37.0 °F 35.6 °F 87% 29.65 in 10.0 mi ESE 3.5 mph - N/A   Drizzle
6:34 AM 39.2 °F 35.9 °F 35.6 °F 87% 29.64 in 10.0 mi SE 4.6 mph - 0.01 in   Light Drizzle
6:54 AM 39.2 °F 35.9 °F 37.4 °F 93% 29.63 in 7.0 mi SE 4.6 mph - 0.01 in Rain Light Rain
7:13 AM 39.2 °F 37.0 °F 37.4 °F 93% 29.62 in 7.0 mi SE 3.5 mph - 0.01 in   Drizzle
7:33 AM 39.2 °F 37.0 °F 37.4 °F 93% 29.62 in 7.0 mi SE 3.5 mph - 0.02 in   Drizzle
7:54 AM 39.2 °F 35.0 °F 37.4 °F 93% 29.61 in 4.0 mi SE 5.8 mph - 0.02 in Rain Rain
8:14 AM 41.0 °F - 37.4 °F 87% 29.61 in 3.0 mi Calm Calm - N/A   Drizzle
8:33 AM 41.0 °F 38.0 °F 37.4 °F 87% 29.60 in 1.8 mi SE 4.6 mph - 0.01 in   Drizzle
8:54 AM 41.0 °F 38.0 °F 37.4 °F 87% 29.60 in 0.5 mi SE 4.6 mph - 0.01 in   Drizzle
9:14 AM 41.0 °F 38.0 °F 37.4 °F 87% 29.60 in 0.2 mi SSE 4.6 mph - N/A Fog Fog
9:33 AM 42.8 °F 39.3 °F 39.2 °F 87% 29.58 in 0.2 mi SSE 5.8 mph - N/A Fog Fog
9:35 AM 42.8 °F 39.3 °F 39.2 °F 87% 29.58 in 0.2 mi SSE 5.8 mph - N/A Fog Fog
12:21 PM 48.2 °F - 42.8 °F 82% 29.54 in 10.0 mi South 9.2 mph - N/A   Mostly Cloudy
1:01 PM 50.0 °F - 42.8 °F 76% 29.52 in 10.0 mi South 8.1 mph - N/A   Mostly Cloudy
1:21 PM 48.2 °F - 42.8 °F 82% 29.51 in 10.0 mi SSE 6.9 mph - N/A   Mostly Cloudy
1:41 PM 50.0 °F - 42.8 °F 76% 29.50 in 10.0 mi SSE 8.1 mph - N/A   Scattered Clouds
2:01 PM 51.8 °F - 42.8 °F 71% 29.50 in 10.0 mi South 6.9 mph - N/A   Mostly Cloudy
2:41 PM 50.0 °F - 42.8 °F 76% 29.49 in 10.0 mi SSE 8.1 mph - N/A   Mostly Cloudy
3:01 PM 51.8 °F - 42.8 °F 71% 29.48 in 10.0 mi South 8.1 mph - N/A   Scattered Clouds
3:41 PM 51.8 °F - 41.0 °F 67% 29.47 in 10.0 mi South 8.1 mph - N/A   Clear
4:21 PM 51.8 °F - 41.0 °F 67% 29.47 in 10.0 mi South 5.8 mph - N/A   Clear
4:41 PM 51.8 °F - 41.0 °F 67% 29.46 in 10.0 mi South 2.3 mph - N/A   Clear
5:01 PM 50.0 °F - 41.0 °F 71% 29.46 in 10.0 mi South 3.5 mph - N/A   Clear
5:21 PM 48.2 °F - 41.0 °F 76% 29.47 in 10.0 mi South 4.6 mph - N/A   Clear
5:41 PM 46.4 °F 44.3 °F 41.0 °F 81% 29.47 in 10.0 mi SSE 4.6 mph - N/A   Clear
6:21 PM 44.6 °F - 39.2 °F 81% 29.47 in 10.0 mi Calm Calm - N/A   Clear
7:01 PM 42.8 °F - 39.2 °F 87% 29.46 in 10.0 mi Calm Calm - N/A   Clear
8:01 PM 39.2 °F - 35.6 °F 87% 29.46 in 5.0 mi North 1.2 mph - N/A   Clear
8:21 PM 37.4 °F - 35.6 °F 93% 29.46 in 5.0 mi NNE 1.2 mph - N/A   Clear
8:41 PM 37.4 °F - 33.8 °F 87% 29.47 in 5.0 mi NNE 2.3 mph - N/A   Clear
9:01 PM 41.0 °F - 37.4 °F 87% 29.47 in 7.0 mi SE 2.3 mph - N/A   Clear
9:21 PM 42.8 °F 41.1 °F 39.2 °F 87% 29.47 in 7.0 mi ESE 3.5 mph - N/A   Clear
10:01 PM 37.4 °F - 33.8 °F 87% 29.47 in 0.5 mi East 2.3 mph - N/A   Unknown
10:21 PM 37.4 °F - 33.8 °F 87% 29.47 in 0.2 mi Calm Calm - N/A   Mostly Cloudy
10:41 PM 37.4 °F - 33.8 °F 87% 29.47 in 0.5 mi ENE 1.2 mph - N/A   Mostly Cloudy
11:01 PM 35.6 °F 32.8 °F 33.8 °F 93% 29.47 in 0.5 mi NNE 3.5 mph - N/A   Unknown
11:21 PM 35.6 °F 31.7 °F 32.0 °F 87% 29.46 in 0.2 mi NNE 4.6 mph - N/A   Overcast
11:41 PM 35.6 °F 32.8 °F 33.8 °F 93% 29.46 in 0.2 mi NNE 3.5 mph - N/A   Overcast